Location: Caltech
(34.1382°N, 118.1253°W)
Time: 10:29:01
(UTC-07:00)

Tiros 1 despin weight - All Passes

Search period start: 29 April 2017 00:00
Search period end: 09 May 2017 00:00
Orbit: 595 x 644 km, 48.2° (Epoch: 27 April)

Date Brightness Start Highest point End Pass type
(mag) Time Alt. Az. Time Alt. Az. Time Alt. Az.
29 Apr - 12:47:39 10° SSW 12:51:39 29° SE 12:55:42 10° ENE daylight
29 Apr - 14:28:35 10° WSW 14:33:06 48° NNW 14:37:40 10° NE daylight
29 Apr - 16:12:27 10° NW 16:15:36 17° NNW 16:18:44 10° NNE daylight
29 Apr - 17:55:57 10° NNW 17:58:41 15° N 18:01:25 10° NE daylight
29 Apr - 19:37:12 10° NW 19:41:26 33° NNE 19:45:36 10° E daylight
29 Apr - 21:18:41 10° WNW 21:23:10 48° SW 21:27:33 10° SSE visible
30 Apr - 13:03:55 10° SW 13:08:31 61° SE 13:13:09 10° ENE daylight
30 Apr - 14:46:17 10° W 14:50:22 29° NNW 14:54:29 10° NE daylight
30 Apr - 16:30:33 10° NW 16:33:12 15° N 16:35:50 10° NNE daylight
30 Apr - 18:12:58 10° NNW 18:16:16 19° NNE 18:19:33 10° ENE daylight
30 Apr - 19:54:02 10° NW 19:58:39 57° NE 20:03:11 10° ESE visible
30 Apr - 21:36:20 10° W 21:39:58 23° SW 21:43:33 10° S visible
01 May - 11:41:01 10° S 11:44:18 19° SE 11:47:35 10° E daylight
01 May - 13:20:53 10° WSW 13:25:31 68° NW 13:30:13 10° NE daylight
01 May - 15:04:19 10° WNW 15:07:48 20° NNW 15:11:17 10° NNE daylight
01 May - 16:48:16 10° NNW 16:50:50 14° N 16:53:24 10° NE daylight
01 May - 18:29:48 10° NW 18:33:44 26° NNE 18:37:38 10° E daylight
01 May - 20:11:02 10° NW 20:15:42 74° SW 20:20:16 10° SE visible
02 May - 11:56:44 10° SSW 12:01:04 40° SE 12:05:27 10° ENE daylight
02 May - 13:38:21 10° W 13:42:42 37° NNW 13:47:04 10° NE daylight
02 May - 15:22:28 10° NW 15:25:21 16° N 15:28:14 10° NNE daylight
02 May - 17:05:29 10° NNW 17:08:27 16° N 17:11:25 10° NE daylight
02 May - 18:46:36 10° NW 18:51:03 41° NNE 18:55:26 10° ESE daylight
02 May - 20:28:22 10° WNW 20:32:36 34° SW 20:36:44 10° SSE visible
03 May - 10:35:10 10° SSE 10:36:58 12° SE 10:38:46 10° ESE daylight
03 May - 12:13:20 10° SW 12:17:59 84° SE 12:22:41 10° NE daylight
03 May - 13:56:13 10° WNW 14:00:02 24° NNW 14:03:53 10° NNE daylight
03 May - 15:40:26 10° NW 15:42:58 14° N 15:45:31 10° NNE daylight
03 May - 17:22:22 10° NNW 17:25:59 21° NNE 17:29:34 10° ENE daylight
03 May - 19:03:29 10° NW 19:08:11 77° NE 19:12:48 10° ESE daylight
03 May - 20:46:28 10° W 20:49:20 16° SW 20:52:10 10° SSW visible
04 May - 10:49:48 10° S 10:53:40 27° SE 10:57:34 10° ENE daylight
04 May - 12:30:32 10° WSW 12:35:03 51° NNW 12:39:39 10° NE daylight
04 May - 14:14:19 10° WNW 14:17:31 18° NNW 14:20:43 10° NNE daylight
04 May - 15:57:53 10° NNW 16:00:37 15° N 16:03:19 10° NE daylight
04 May - 17:39:11 10° NW 17:43:23 31° NNE 17:47:32 10° E daylight
04 May - 19:20:36 10° WNW 19:25:09 53° SW 19:29:39 10° SSE daylight
05 May - 11:05:58 10° SW 11:10:29 56° SE 11:15:05 10° ENE daylight
05 May - 12:48:12 10° W 12:52:18 30° NNW 12:56:27 10° NE daylight
05 May - 14:32:25 10° NW 14:35:06 15° N 14:37:47 10° NNE daylight
05 May - 16:14:55 10° NNW 16:18:11 18° NNE 16:21:26 10° ENE daylight
05 May - 17:56:00 10° NW 18:00:36 54° NNE 18:05:10 10° ESE daylight
05 May - 19:38:10 10° WNW 19:41:58 25° SW 19:45:44 10° S daylight
06 May - 09:43:16 10° S 09:46:18 17° SE 09:49:21 10° E daylight
06 May - 11:22:52 10° WSW 11:27:28 72° NW 11:32:10 10° NE daylight
06 May - 13:06:11 10° WNW 13:09:43 21° NNW 13:13:15 10° NNE daylight
06 May - 14:50:11 10° NNW 14:52:44 14° N 14:55:18 10° NE daylight
06 May - 16:31:45 10° NNW 16:35:39 25° NNE 16:39:32 10° ENE daylight
06 May - 18:12:58 10° NW 18:17:41 79° SW 18:22:19 10° SE daylight
06 May - 19:57:18 10° WSW 19:58:39 11° SW 20:00:00 10° SW daylight
07 May - 09:58:50 10° SSW 10:03:02 37° SE 10:07:20 10° ENE daylight
07 May - 11:40:17 10° W 11:44:38 39° NNW 11:49:02 10° NE daylight
07 May - 13:24:20 10° NW 13:27:15 16° N 13:30:10 10° NNE daylight
07 May - 15:07:25 10° NNW 15:10:22 16° N 15:13:17 10° NE daylight
07 May - 16:48:33 10° NW 16:52:59 39° NNE 16:57:22 10° E daylight
07 May - 18:30:14 10° WNW 18:34:34 37° SW 18:38:51 10° SSE daylight
08 May - 08:37:51 10° SE 08:38:58 11° SE 08:40:06 10° ESE daylight
08 May - 10:15:21 10° SW 10:19:56 79° SE 10:24:37 10° NE daylight
08 May - 11:58:06 10° WNW 12:01:57 25° NNW 12:05:49 10° NNE daylight
08 May - 13:42:19 10° NW 13:44:52 14° N 13:47:25 10° NNE daylight
08 May - 15:24:20 10° NNW 15:27:54 21° NNE 15:31:26 10° ENE daylight
08 May - 17:05:25 10° NW 17:10:08 72° NE 17:14:47 10° ESE daylight
08 May - 18:48:11 10° W 18:51:19 18° SW 18:54:26 10° S daylight
